MET5208 - Greenville - Spartanburg to Boston

Embraer ERJ-170LR
N924AG
2 hrs 00 mins
691 nm
Scheduled - Daily

Bid/PiRep Status

Bid was submitted on January 2nd, 2017 1:14 UTC.
PiRep # 74570: Approved by Sean Doyle on January 2nd, 2017 20:08 UTC

Departure

Departing from
Greenville - Spartanburg (GSP)
Departure gate
Ramp
Scheduled Departure
GMT 2200
Local 1800
METAR KGSP 182253Z 23005KT 10SM CLR 03/M07 A3026 RMK AO2 SLP252 T00331067
TAF KGSP 181728Z 1818/1918 25007KT P6SM SKC FM190000 24004KT P6SM SKC FM191400 25006KT P6SM FEW250

Route Map

Planning Resources

SPA V605 GENOD GSO J14 RIC
SPA RDU FAK OTT6
SPA J37 GVE J42 OTT RAVNN5
SPA JAC EVING LOOEY JAXSN CREWE FAK OGATE BRV OTT DEALE RAVNN
CEVVY SPA J37 GVE J42 OTT RAVNN5 COLUM
Route:
OFP Layout:
Units:
Detailed Navlog:
ETOPS Planning:
Plan Stepclimbs:
Runway Analysis:
Include NOTAMS:
FIR NOTAMS:
Flight Maps:

Return Flights

MET5207
Embraer ERJ-170LR
1900 GMT
MET5209
Embraer ERJ-170LR
0300 GMT

Popularity

Hub Current Bids PiReps this month Total PiReps
KLAX 0 0 0
KBOS 0 0 2
KDFW 0 0 0